This is the latest recevied weather packets stored in our database for station/object HS5AM-10. If no packets are shown the sender has not sent any weather packets the latest 10 day(s).
| Time | Temp. | Humidity | Pressure | Rain* | Wind** | Luminosity | Snow |
|---|---|---|---|---|---|---|---|
| 1777540519 | 35° C | 47% | 980 hPa | - | - | 0 W/m² | - |
| 1777539895 | 35.56° C | 49% | 980 hPa | - | - | 0 W/m² | - |
| 1777539271 | 36.11° C | 48% | 980 hPa | - | - | 0 W/m² | - |
| 1777538647 | 37.22° C | 49% | 980 hPa | - | - | 0 W/m² | - |
| 1777538045 | 37.78° C | 48% | 979 hPa | - | - | 0 W/m² | - |
| 1777537421 | 38.33° C | 43% | 980 hPa | - | - | 0 W/m² | - |
| 1777536797 | 38.89° C | 39% | 980 hPa | - | - | 0 W/m² | - |
| 1777536173 | 38.89° C | 39% | 980 hPa | - | - | 0 W/m² | - |
| 1777535549 | 38.89° C | 39% | 980 hPa | - | - | 0 W/m² | - |
| 1777534925 | 38.89° C | 39% | 980 hPa | - | - | 0 W/m² | - |
| 1777534301 | 38.89° C | 39% | 981 hPa | - | - | 0 W/m² | - |
| 1777533677 | 38.89° C | 39% | 981 hPa | - | - | 0 W/m² | - |
| 1777533053 | 38.33° C | 39% | 981 hPa | - | - | 0 W/m² | - |
| 1777532429 | 38.33° C | 39% | 981 hPa | - | - | 0 W/m² | - |
| 1777531805 | 38.33° C | 40% | 982 hPa | - | - | 0 W/m² | - |
| 1777531181 | 37.78° C | 40% | 982 hPa | - | - | 0 W/m² | - |
| 1777530557 | 37.78° C | 40% | 982 hPa | - | - | 0 W/m² | - |
| 1777529933 | 37.78° C | 40% | 982 hPa | - | - | 0 W/m² | - |
| 1777529309 | 37.78° C | 40% | 983 hPa | - | - | 0 W/m² | - |
| 1777528685 | 37.78° C | 41% | 983 hPa | - | - | 0 W/m² | - |
| 1777528061 | 37.22° C | 42% | 983 hPa | - | - | 0 W/m² | - |
| 1777527437 | 37.22° C | 42% | 983 hPa | - | - | 0 W/m² | - |
| 1777526813 | 37.22° C | 43% | 983 hPa | - | - | 0 W/m² | - |
| 1777526189 | 36.67° C | 44% | 983 hPa | - | - | 0 W/m² | - |
| 1777525565 | 35.56° C | 47% | 983 hPa | - | - | 0 W/m² | - |
* Rain since midnight (hover to see other rain measurements)
** Current wind speed in m/s (hover to see current wind gust speed)